Probability
0 0 0 0 0 0 0 0 0 0 0 0 0 0 0 0 0 0 0 0 0 0 0 0 0 0 0 0 0 0 0 0 0 0 0 0 0 0
0 0 0 0 0 0 0 0 0 0 0 0 0 0 0 0 0 0 0 0 0 0 0 0 0 0 0 0 0 0 0 0 0 0 0 0 0 0
0 0 0 0 0 0 0 0 0 0 0 0 0 0 0 0 0 0 0 0 0 0 0 0 0 0 0 0 0 0 0 0 0 0 0 0 0 0
0 0 0 0 0 0 0 0 0 0 0 0 0 0 0 0 0 0 0 0 0 0 0 0 0 0 0 0 0 0 0 0 0 0 0 0 0 0
0 0 0 0 0 0 0 0 0 0 0 0 0 0 0 0 0 0 0 0 0 0 0 0 0 0 0 0 0 0 0 0 0 0 0 0 0 0
0 0 0 0 0 0 0 0 0 0 0 0 0 0 0 0 0 0 0 0 0 0 0 0 0 0 0 0 0 0 0 0 0 0 0 0 0 0
0 0 0 0 0 0 0 0 0 0 0 0 0 0 0 0 0 0 0 0 0 0 0 0 0 0 0 0 0 0 0 0 0 0 0 0 0 0
0 0 0 0 0 0 0 0 0 0 0 0 0 0 0 0 0 0 0 0 0 0 0 0 0 0 0 0 0 0 0 0 0 0 0 0 0 0
0 0 0 0 0 0 0 0 0 0 0 0 0 0 0 0 0 0 0 0 0 0 0 0 0 0 0 0 0 0 0 0 0 0 0 0 0 0
0 0 0 0 0 0 0 0 0 0 0 0 0 0 0 0 0 0 0 0 0 0 0 0 0 0 0 0 0 0 0 0 0 0 0 0 0 0
0 0 0 0 0 0 0 0 0 0 0 0 0 0 0 0 0 0 0 0 0 0 0 0 0 0 0 0 0 0 0 0 0 0 0 0 0 0
0 0 0 0 0 0 0 0 0 0 0 0 0 0 0 0 0 0 0 0 0 0 0 0 0 0 0 0 0 0 0 0 0 0 0 0 0 0
0 0 0 0 0 0 0 0 0 0 0 0 0 0 0 0 0 0 0 0 0 0 0 0 0 0 0 0 0 0 0 0 0 0 0 0 0 0
0 0 0 0 0 0 0 0 0 0 0 0 0 0 0 0 0 0 0 0 0 0 0 0 0 0 0 0 0 0 0 0 0 0 0 0 0 0
0 0 0 0 0 0 0 0 0 0 0 0 0 0 0 0 0 0 0 0 0 0 0 0 0 0 0 0 0 0 0 0 0 0 0 0 0 0
0 0 0 0 0 0 0 0 0 0 0 0 0 0 0 0 0 0 0 0 0 0 0 0 0 0 0 0 0 0 0 0 0 0 0 0 0 0
0 0 0 0 0 0 0 0 0 0 0 0 0 0 0 0 0 0 0 0 0 0 0 0 0 0 0 0 0 0 0 0 0 0 0 0 0 0
0 0 0 0 0 0 0 0 0 0 0 0 0 0 0 0 0 0 0 0 0 0 0 0 0 0 0 0 0 0 0 0 0 0 0 0 0 0
0 0 0 0 0 0 0 0 0 0 0 0 0 0 0 0 0 0 0 0 0 0 0 0 0 0 0 0 0 0 0 0 0 0 0 0 0 0
0 0 0 0 0 0 0 0 0 0 0 0 0 0 0 0 0 0 0 0 0 0 0 0 0 0 0 0 0 0 0 0 0 0 0 0 0 0
0 0 0 0 0 0 0 0 0 0 0 0 0 0 0 0 0 0 0 0 0 0 0 0 0 0 0 0 0 0 0 0 0 0 0 0 0 0
0 0 0 0 0 0 0 0 0 0 0 0 0 0 0 0 0 0 0 0 0 0 0 0 0 0 0 0 0 0 0 0 0 0 0 0 0 0
0 0 0 0 0 0 0 0 0 0 0 0 0 0 0 0 0 0 0 0 0 0 0 0 0 0 0 0 0 0 0 0 0 0 0 0 0 0
Height
5734 5734 5734 5734 5733 5732 5731 5730 5730 5730 5729 5728 5726 5724 5722 5720 5719 5717 5715 5714 5712 5711 5709 5707 5705 5703 5701 5699 5697 5696 5693 5692 5690 5688 5687 5685 5683 5681
5723 5723 5723 5722 5722 5721 5720 5718 5717 5717 5717 5716 5714 5712 5709 5707 5705 5703 5702 5700 5698 5696 5694 5692 5690 5688 5685 5683 5681 5679 5677 5676 5674 5672 5671 5670 5668 5667
5712 5711 5711 5710 5710 5709 5707 5706 5705 5704 5703 5703 5701 5698 5696 5694 5692 5690 5688 5685 5683 5681 5679 5677 5674 5671 5669 5667 5665 5663 5661 5659 5658 5656 5654 5653 5652 5651
5700 5699 5699 5698 5697 5696 5694 5693 5691 5690 5689 5689 5688 5685 5683 5680 5678 5675 5673 5670 5668 5666 5663 5661 5658 5656 5653 5650 5648 5646 5644 5642 5641 5639 5638 5637 5635 5633
5687 5687 5686 5685 5684 5682 5680 5679 5677 5676 5674 5673 5673 5671 5668 5665 5663 5661 5658 5655 5653 5650 5647 5645 5642 5639 5636 5634 5631 5629 5627 5626 5624 5622 5620 5618 5617 5616
5675 5674 5672 5671 5669 5668 5666 5664 5662 5661 5659 5658 5657 5655 5653 5650 5647 5645 5643 5640 5638 5635 5631 5628 5626 5623 5620 5618 5615 5613 5610 5608 5606 5604 5602 5601 5599 5597
5661 5660 5658 5656 5654 5652 5650 5649 5647 5645 5643 5642 5641 5639 5637 5634 5632 5629 5627 5625 5622 5619 5616 5614 5610 5608 5605 5601 5598 5596 5593 5591 5589 5587 5585 5583 5581 5580
5647 5646 5644 5641 5639 5637 5635 5633 5631 5629 5628 5626 5625 5623 5621 5618 5615 5613 5610 5608 5608 5605 5601 5599 5595 5592 5589 5586 5582 5580 5577 5575 5572 5570 5568 5566 5564 5563
5633 5631 5629 5627 5624 5622 5620 5618 5616 5613 5612 5610 5608 5607 5605 5602 5600 5598 5595 5592 5590 5587 5584 5583 5579 5576 5573 5570 5566 5564 5561 5559 5556 5554 5552 5550 5548 5546
5618 5616 5614 5612 5609 5607 5605 5603 5601 5599 5596 5594 5592 5590 5588 5585 5583 5581 5579 5577 5576 5572 5567 5567 5564 5561 5559 5555 5551 5548 5545 5543 5540 5538 5536 5534 5532 5530
5602 5600 5598 5596 5594 5591 5589 5588 5586 5584 5581 5578 5576 5573 5571 5569 5566 5564 5563 5561 5560 5558 5553 5550 5548 5546 5544 5541 5536 5532 5530 5527 5525 5523 5521 5519 5517 5515
5588 5585 5583 5581 5579 5576 5573 5572 5570 5568 5566 5563 5561 5558 5555 5553 5550 5548 5546 5544 5543 5542 5539 5535 5532 5529 5529 5527 5522 5518 5515 5512 5510 5508 5506 5504 5502 5500
5573 5571 5568 5566 5563 5561 5558 5556 5554 5552 5550 5548 5546 5544 5540 5537 5535 5532 5530 5528 5526 5525 5523 5519 5517 5514 5511 5511 5509 5504 5501 5498 5496 5493 5491 5489 5487 5485
5558 5556 5554 5551 5548 5546 5543 5541 5538 5536 5534 5533 5531 5528 5526 5523 5520 5517 5515 5512 5510 5509 5506 5503 5501 5499 5497 5495 5494 5491 5487 5484 5481 5479 5477 5474 5472 5470
5543 5541 5539 5536 5534 5531 5528 5525 5523 5521 5519 5517 5515 5513 5510 5508 5505 5503 5500 5498 5496 5494 5491 5489 5487 5485 5482 5480 5479 5476 5474 5471 5468 5465 5463 5460 5459 5457
5529 5527 5525 5522 5519 5516 5514 5511 5508 5506 5503 5502 5500 5498 5495 5493 5491 5488 5486 5484 5483 5481 5478 5475 5473 5471 5469 5467 5464 5462 5459 5457 5455 5452 5450 5447 5445 5443
5516 5514 5511 5508 5505 5502 5500 5497 5494 5491 5489 5487 5485 5483 5481 5479 5477 5475 5473 5471 5470 5469 5467 5463 5461 5458 5456 5454 5451 5449 5446 5444 5441 5439 5437 5435 5433 5431
5502 5500 5497 5494 5491 5489 5486 5483 5480 5478 5476 5473 5471 5469 5468 5466 5464 5462 5460 5459 5457 5456 5454 5452 5449 5447 5445 5442 5439 5436 5434 5431 5429 5426 5424 5423 5422 5419
5489 5486 5484 5481 5478 5476 5473 5470 5468 5466 5463 5461 5459 5457 5455 5453 5452 5450 5448 5447 5445 5444 5442 5439 5437 5434 5433 5431 5429 5425 5422 5420 5418 5416 5413 5411 5410 5409
5476 5474 5472 5469 5466 5463 5461 5458 5456 5454 5452 5450 5448 5446 5444 5442 5441 5439 5437 5435 5434 5432 5431 5428 5425 5423 5421 5420 5418 5415 5412 5410 5408 5406 5404 5401 5400 5398
5464 5462 5459 5457 5454 5451 5449 5447 5444 5443 5441 5439 5437 5435 5433 5431 5430 5428 5426 5424 5422 5421 5420 5418 5415 5412 5410 5409 5408 5406 5403 5400 5398 5396 5394 5392 5391 5390
5452 5450 5448 5445 5443 5440 5438 5436 5434 5432 5431 5429 5427 5425 5423 5421 5420 5418 5416 5414 5412 5411 5409 5407 5405 5403 5401 5400 5398 5396 5394 5391 5389 5387 5385 5383 5382 5381
5441 5439 5437 5434 5432 5430 5428 5426 5424 5423 5421 5419 5417 5416 5414 5412 5410 5408 5406 5405 5403 5401 5400 5398 5396 5394 5392 5391 5389 5387 5385 5383 5381 5379 5377 5375 5373 5371
Wind_Speed
42 42 41 41 42 43 44 44 44 44 45 46 47 47 47 47 48 49 50 51 51 51 51 52 53 54 54 54 55 55 55 55 54 54 54 53 52 52
44 44 43 44 46 46 46 46 46 46 46 47 48 49 50 49 50 51 52 53 54 54 54 54 54 55 55 56 56 55 55 54 54 55 54 54 53 53
45 46 45 46 47 48 48 48 49 49 49 49 49 50 51 51 52 53 53 54 55 55 55 55 55 55 56 56 57 56 56 55 55 55 55 55 55 54
47 48 47 48 49 50 50 50 50 51 51 51 51 52 53 54 55 55 54 54 55 54 55 55 55 56 56 56 56 56 56 56 57 56 57 57 56 55
49 49 49 50 50 52 52 52 53 53 53 53 53 53 54 55 55 55 54 54 54 55 55 55 55 56 55 55 55 56 56 56 56 56 57 57 56 56
50 51 51 52 53 54 54 54 54 54 54 55 54 54 54 55 55 55 54 54 55 54 55 55 55 55 55 55 55 55 55 55 55 56 56 56 56 56
53 53 53 54 55 55 55 55 55 55 55 55 55 54 54 55 55 56 56 55 54 55 55 56 56 56 56 55 55 55 55 55 55 55 55 55 56 55
54 55 54 55 55 55 55 55 56 56 56 56 56 55 55 56 56 56 56 55 54 54 55 55 56 55 56 56 55 55 55 55 55 55 55 55 55 55
54 55 54 55 55 55 55 55 56 56 56 57 56 56 56 56 56 55 55 55 54 54 54 54 55 55 55 55 56 55 54 54 55 54 54 53 53 53
54 55 55 56 55 56 56 55 55 55 56 56 56 56 56 56 56 56 56 55 54 54 55 54 54 54 54 55 55 55 54 53 53 53 52 51 51 51
54 55 56 56 56 56 56 56 56 55 55 55 55 55 55 56 56 56 56 56 54 54 55 55 54 54 54 53 53 53 53 53 52 52 52 51 50 50
54 54 54 54 54 55 55 55 55 54 54 54 54 54 55 55 55 56 56 56 56 54 54 54 53 53 51 51 52 51 51 51 51 51 50 50 50 50
53 53 54 54 54 55 55 55 54 54 54 54 54 54 55 55 55 56 56 56 55 54 53 53 52 52 51 50 50 50 50 50 50 49 49 50 50 49
52 52 53 54 54 54 55 55 55 55 55 54 54 54 55 54 54 55 55 54 53 52 51 51 50 50 50 49 49 48 48 48 48 48 49 48 48 48
51 52 52 53 53 53 53 54 54 54 54 54 53 53 53 53 53 53 52 51 50 50 49 49 48 48 48 48 47 47 47 46 46 46 46 46 47 47
50 51 51 51 52 52 52 52 53 53 53 52 51 51 50 50 50 49 49 48 48 47 47 47 47 47 47 46 46 45 45 44 44 44 44 44 44 44
50 50 50 50 51 51 51 51 50 49 49 48 48 47 47 47 47 47 47 46 45 44 44 45 46 46 45 45 44 44 44 43 43 43 42 41 41 41
49 49 48 48 47 47 47 47 47 46 45 45 45 45 44 45 45 44 44 43 43 43 43 43 44 44 44 42 42 42 42 42 41 40 39 38 38 39
47 46 46 45 45 45 45 44 44 43 42 42 42 42 42 42 42 41 42 42 42 41 41 42 42 42 41 40 39 40 39 38 37 37 37 37 36 35
45 44 44 44 44 43 42 42 41 40 40 40 40 40 40 40 40 40 40 40 40 40 39 39 40 40 38 37 35 35 36 35 35 35 35 34 34 34
42 42 42 42 41 40 39 39 38 37 37 38 38 38 38 38 38 38 39 39 38 38 37 37 37 36 35 34 33 32 34 34 33 32 32 32 31 32
40 40 39 39 38 38 37 37 36 36 36 36 36 36 36 36 37 37 36 36 35 34 33 33 33 33 32 32 31 31 31 31 30 30 29 29 29 29
39 39 38 37 37 36 36 35 35 35 35 35 35 35 34 34 34 34 33 32 31 31 31 31 32 32 31 30 29 28 28 28 28 28 27 27 26 26
Wind_Direction
265 266 269 271 273 275 275 277 277 276 275 276 277 277 277 277 278 279 279 279 278 278 279 280 281 281 281 281 280 280 280 280 280 280 280 280 280 280
267 268 271 273 274 275 276 277 278 277 277 277 278 279 278 278 278 279 280 280 279 279 279 281 282 282 282 281 280 279 279 279 279 279 279 278 278 278
267 269 271 273 274 275 276 277 278 277 277 277 279 279 279 279 280 280 280 281 280 279 279 281 282 282 283 282 281 279 279 278 278 277 277 277 277 277
268 269 271 273 275 276 277 277 277 276 277 278 279 280 280 280 281 281 282 281 280 280 280 281 282 283 283 283 281 280 279 279 278 278 278 277 277 276
269 271 272 273 276 277 278 277 277 276 277 278 279 280 281 281 281 281 281 281 281 281 282 281 282 282 282 283 281 280 280 280 279 279 278 277 276 275
271 272 273 274 276 278 278 278 277 277 278 279 280 281 281 280 280 280 281 282 282 282 282 282 281 282 282 282 282 282 281 281 280 279 278 277 276 275
272 273 275 276 276 278 278 279 279 278 279 280 281 281 281 281 281 281 282 282 283 283 283 282 282 282 282 282 283 282 282 281 280 280 279 278 277 276
274 275 276 276 276 278 279 280 280 279 280 281 282 282 281 282 282 281 282 283 283 284 284 283 282 283 283 283 283 283 283 282 281 281 280 279 278 277
275 275 276 277 278 278 279 280 280 280 281 281 282 282 282 282 282 282 282 283 285 284 284 284 284 283 282 282 282 282 282 282 282 281 280 280 279 278
275 276 277 277 277 278 279 280 280 280 281 281 282 282 282 282 282 282 283 283 284 285 285 285 283 283 281 282 283 283 282 282 281 281 281 281 280 278
276 277 277 278 278 279 280 280 280 280 281 281 282 283 282 282 282 282 282 283 284 284 284 284 283 282 282 282 283 282 282 282 281 280 280 281 280 279
277 277 278 279 279 280 280 280 280 280 280 281 281 282 282 282 282 282 282 283 283 283 283 283 283 282 282 282 282 282 282 281 280 280 280 280 280 280
278 278 278 278 279 280 280 280 280 280 280 280 280 281 282 282 282 281 282 283 283 283 283 283 283 283 283 283 283 283 282 282 281 281 280 280 280 280
278 278 278 279 280 280 280 280 280 280 280 280 280 281 281 282 282 281 282 282 282 283 283 283 284 284 283 284 284 283 282 283 282 282 281 280 280 279
278 279 280 280 280 280 280 280 280 280 280 280 280 281 281 281 281 281 281 282 282 283 283 283 284 285 285 285 284 283 283 283 283 282 281 281 280 279
280 281 281 282 282 281 281 281 281 281 280 280 280 281 280 280 281 282 282 282 282 282 283 284 285 285 285 285 285 284 283 283 283 282 282 281 281 280
281 282 283 283 282 282 281 281 281 281 281 281 281 281 280 281 282 283 284 283 283 282 281 283 285 286 286 286 285 285 284 283 284 283 282 280 280 280
282 283 283 283 282 282 282 282 282 282 282 281 282 282 282 282 283 283 283 283 282 282 282 283 284 285 285 286 286 285 284 284 284 284 283 281 280 280
282 282 283 283 283 283 283 283 282 281 281 281 282 283 283 283 283 283 283 283 283 282 282 283 284 285 285 285 285 285 286 285 285 284 284 283 281 280
281 282 283 283 283 283 283 282 281 280 281 281 282 282 283 283 283 283 283 283 282 282 282 283 284 286 286 286 285 285 286 286 286 286 285 283 282 282
281 282 283 283 283 283 283 282 281 280 280 282 282 283 283 283 284 284 284 283 282 282 283 283 284 285 285 285 286 285 285 287 288 287 286 283 282 283
281 282 283 283 283 283 282 281 281 280 281 283 283 284 284 285 285 285 285 284 283 284 284 284 284 284 285 286 287 286 285 287 288 288 288 286 284 283
280 281 281 281 281 281 281 281 281 281 282 283 284 285 286 286 286 286 284 283 283 284 284 284 284 285 285 286 287 286 286 287 289 289 289 289 287 286